Lid_Strength_Index
7 7 7 10 11 9 14 13 16 14 12 9 7 8 7 7 6 6 5 4 4 3 2 2 2 2 1 1 1 1 0 0
8 7 7 8 8 12 12 17 18 15 15 14 11 10 8 7 7 6 5 4 4 3 3 2 2 1 1 1 1 1 0 0
8 10 11 10 11 10 11 13 16 16 14 10 11 9 9 7 6 6 6 5 4 3 2 2 1 1 1 1 1 1 1 0
10 8 8 9 9 9 12 13 13 14 12 8 8 8 7 7 6 5 4 4 4 3 3 2 2 2 2 1 1 1 0 0
11 9 8 10 9 10 11 10 13 13 12 8 8 8 7 7 6 5 4 4 4 4 4 3 2 2 2 1 1 1 0 1
12 12 10 11 11 10 9 11 12 12 13 10 10 9 8 7 6 5 5 5 5 4 4 3 3 2 2 1 1 1 1 1
10 10 10 11 11 11 12 11 13 13 13 11 10 9 8 7 6 6 6 6 5 5 4 3 3 2 2 2 1 1 1 1
12 10 10 11 11 11 11 11 12 12 12 8 8 7 7 7 7 6 6 6 5 5 4 4 3 3 2 2 1 1 1 1
13 11 10 12 11 11 11 10 10 12 10 8 9 8 8 7 7 7 6 5 5 4 4 3 3 2 2 2 1 2 2 1
11 11 15 10 8 9 10 10 9 9 9 8 8 7 6 6 6 6 5 5 4 4 3 3 2 2 2 1 2 2 2 2
12 13 12 11 9 9 10 10 8 8 8 7 6 6 7 5 5 6 6 6 5 4 3 3 3 2 2 2 2 2 2 2
12 14 15 10 8 6 7 12 7 7 7 7 7 10 8 5 4 4 4 5 6 5 5 4 4 2 2 2 2 3 2 1
12 13 11 8 7 6 12 11 6 6 7 7 8 7 6 4 4 3 3 4 4 5 6 5 4 3 3 2 3 2 1 1
12 13 14 6 7 10 7 6 6 6 6 6 6 5 5 4 4 4 3 3 4 5 5 5 4 2 3 3 1 1 1 1
10 9 7 5 6 5 5 6 6 6 5 5 5 5 5 4 4 4 3 3 4 4 5 5 5 4 4 4 2 2 4 5
9 8 7 6 5 4 4 5 4 4 4 4 5 5 5 4 3 3 3 3 3 4 5 6 6 6 7 6 4 5 5 6
8 7 6 5 5 4 4 4 4 4 4 4 4 4 4 4 3 3 3 3 3 4 5 5 6 6 6 7 7 8 8 8
8 6 6 5 4 3 4 4 4 4 4 3 4 4 3 4 3 3 3 3 3 4 4 5 5 6 6 5 6 7 8 9
6 4 4 4 3 3 4 4 3 3 3 4 3 3 3 3 3 4 3 3 2 3 3 3 4 4 3 4 4 5 7 8